カタログに戻る

SL-14 DEB

運用中PO
NORAD 39976·DEBRIS·🇷🇺 Russia

打ち上げ Aug 18, 1987 から Plesetsk Cosmodrome

Loading…

次のパス (今後24時間)

TLE

経年Source: Space-Track

元期: Sep 9, 2026, 06:28 UTC

1 39976U 87068DC  26252.26990587  .00000792  00000-0  48931-3 0  9992
2 39976  82.5437  89.3969 0010396  95.3732 264.8626 14.04232316143993

AllMySatでSL-14 DEBをリアルタイム追跡

Download on the App Store